EXS1359 EGBB-LFLB

Flight info

Callsign EXS1359
Flight time 1h 24m
Altitude 35000
Route COWLY L612 MID UL612 OGULO DCT OKASI DCT OKEKO DCT OKIRA DCT MOU DCT FEDZI
Aircraft A321/M-SDE3FGHIRWY/LB1

Departure

Time 2026-05-04 18:59
Airport Birmingham Airport (EGBB)

Arrival

Time 2026-05-04 20:24
Airport Chambéry Aix les Bains airport (LFLB)
Time Latitude Longitude Altitude Speed Heading
2026-05-04 18:42 52.45119 -1.73494 324 ft 0 kts 141°
2026-05-04 18:48 52.45127 -1.73504 324 ft 4 kts 141°
2026-05-04 18:48 52.45147 -1.73530 324 ft 4 kts 158°
2026-05-04 18:49 52.45171 -1.73534 324 ft 4 kts 208°
2026-05-04 18:49 52.45188 -1.73509 324 ft 1 kts 236°
2026-05-04 18:49 52.45179 -1.73531 324 ft 4 kts 236°
2026-05-04 18:49 52.45174 -1.73543 324 ft 0 kts 236°
2026-05-04 18:52 52.45172 -1.73548 322 ft 2 kts 236°
2026-05-04 18:52 52.45155 -1.73589 324 ft 6 kts 236°
2026-05-04 18:52 52.45125 -1.73661 324 ft 9 kts 236°
2026-05-04 18:53 52.45106 -1.73755 323 ft 8 kts 284°
2026-05-04 18:53 52.45133 -1.73809 322 ft 5 kts 321°
2026-05-04 18:53 52.45169 -1.73850 323 ft 8 kts 326°
2026-05-04 18:53 52.45224 -1.73910 323 ft 11 kts 327°
2026-05-04 18:54 52.45290 -1.73987 323 ft 12 kts 314°
2026-05-04 18:54 52.45334 -1.74114 323 ft 14 kts 296°
2026-05-04 18:54 52.45380 -1.74263 323 ft 16 kts 296°
2026-05-04 18:54 52.45429 -1.74421 322 ft 15 kts 296°
2026-05-04 18:55 52.45480 -1.74568 323 ft 15 kts 311°
2026-05-04 18:55 52.45624 -1.74741 318 ft 18 kts 325°
2026-05-04 18:55 52.45778 -1.74909 309 ft 22 kts 327°
2026-05-04 18:56 52.45865 -1.75005 307 ft 23 kts 325°
2026-05-04 18:56 52.45997 -1.75153 305 ft 23 kts 326°
2026-05-04 18:56 52.46131 -1.75302 303 ft 23 kts 326°
2026-05-04 18:56 52.46266 -1.75451 303 ft 23 kts 326°
2026-05-04 18:57 52.46400 -1.75598 303 ft 23 kts 326°
2026-05-04 18:57 52.46529 -1.75744 306 ft 21 kts 325°
2026-05-04 18:57 52.46627 -1.75855 306 ft 12 kts 316°
2026-05-04 18:57 52.46614 -1.75969 305 ft 12 kts 238°
2026-05-04 18:58 52.46566 -1.76069 305 ft 8 kts 214°
2026-05-04 18:58 52.46530 -1.76069 307 ft 3 kts 156°
2026-05-04 18:58 52.46461 -1.75996 309 ft 33 kts 147°
2026-05-04 18:58 52.46057 -1.75550 310 ft 103 kts 145°
2026-05-04 18:59 52.45312 -1.74720 323 ft 153 kts 146°
2026-05-04 18:59 52.44358 -1.73688 684 ft 164 kts 146°
2026-05-04 18:59 52.43418 -1.72671 1334 ft 161 kts 144°
2026-05-04 18:59 52.42492 -1.71631 1942 ft 161 kts 144°
2026-05-04 19:00 52.41523 -1.70542 2300 ft 179 kts 148°
2026-05-04 19:00 52.40285 -1.69791 2519 ft 201 kts 166°
2026-05-04 19:00 52.38862 -1.69215 2787 ft 218 kts 165°
2026-05-04 19:00 52.37434 -1.68330 3377 ft 223 kts 152°
2026-05-04 19:01 52.36047 -1.67186 4160 ft 224 kts 153°
2026-05-04 19:01 52.34668 -1.65944 4839 ft 232 kts 147°
2026-05-04 19:01 52.33229 -1.64463 5194 ft 256 kts 147°
2026-05-04 19:01 52.31672 -1.62856 5721 ft 271 kts 147°
2026-05-04 19:02 52.30057 -1.61191 5941 ft 275 kts 148°
2026-05-04 19:02 52.28439 -1.59519 6070 ft 277 kts 147°
2026-05-04 19:02 52.26806 -1.57836 6929 ft 278 kts 148°
2026-05-04 19:02 52.25133 -1.56225 7743 ft 281 kts 154°
2026-05-04 19:03 52.23362 -1.54817 8534 ft 285 kts 154°
2026-05-04 19:03 52.21745 -1.53535 9218 ft 288 kts 154°
2026-05-04 19:03 52.20440 -1.52457 9765 ft 291 kts 151°
2026-05-04 19:03 52.19727 -1.51781 10052 ft 292 kts 148°
2026-05-04 19:04 52.18713 -1.50706 10638 ft 287 kts 147°
2026-05-04 19:04 52.16943 -1.49113 11230 ft 295 kts 155°
2026-05-04 19:04 52.15059 -1.47725 11937 ft 299 kts 157°
2026-05-04 19:05 52.13137 -1.46387 12659 ft 302 kts 157°
2026-05-04 19:05 52.11202 -1.45023 13384 ft 304 kts 156°
2026-05-04 19:05 52.09265 -1.43606 14092 ft 307 kts 156°
2026-05-04 19:05 52.07318 -1.42133 14788 ft 310 kts 155°
2026-05-04 19:06 52.05363 -1.40618 15468 ft 313 kts 155°
2026-05-04 19:06 52.03400 -1.39073 16126 ft 315 kts 155°
2026-05-04 19:06 52.01435 -1.37519 16771 ft 318 kts 155°
2026-05-04 19:06 51.99438 -1.35942 17426 ft 320 kts 155°
2026-05-04 19:07 51.97427 -1.34355 18047 ft 323 kts 155°
2026-05-04 19:07 51.95398 -1.32758 18675 ft 325 kts 155°
2026-05-04 19:07 51.93352 -1.31151 19280 ft 328 kts 155°
2026-05-04 19:07 51.91288 -1.29535 19861 ft 331 kts 155°
2026-05-04 19:08 51.89205 -1.27908 20433 ft 334 kts 155°
2026-05-04 19:08 51.87107 -1.26274 20995 ft 336 kts 155°
2026-05-04 19:08 51.84988 -1.24627 21545 ft 339 kts 155°
2026-05-04 19:08 51.82853 -1.22966 22083 ft 342 kts 155°
2026-05-04 19:09 51.80701 -1.21291 22620 ft 344 kts 155°
2026-05-04 19:09 51.78541 -1.19613 23134 ft 347 kts 155°
2026-05-04 19:09 51.76356 -1.17917 23638 ft 349 kts 155°
2026-05-04 19:09 51.74155 -1.16205 24129 ft 352 kts 155°
2026-05-04 19:10 51.71943 -1.14486 24612 ft 354 kts 155°
2026-05-04 19:10 51.69709 -1.12753 25086 ft 357 kts 155°
2026-05-04 19:10 51.67464 -1.11020 25536 ft 359 kts 155°
2026-05-04 19:10 51.65207 -1.09281 25986 ft 362 kts 156°
2026-05-04 19:11 51.62938 -1.07534 26418 ft 364 kts 155°
2026-05-04 19:11 51.60727 -1.05535 26777 ft 369 kts 146°
2026-05-04 19:11 51.58592 -1.03121 26900 ft 380 kts 146°
2026-05-04 19:11 51.56414 -1.00625 27030 ft 390 kts 146°
2026-05-04 19:12 51.54185 -0.98059 27162 ft 399 kts 145°
2026-05-04 19:12 51.49563 -0.92750 27414 ft 417 kts 146°
2026-05-04 19:12 51.47170 -0.90020 27543 ft 426 kts 146°
2026-05-04 19:13 51.44613 -0.87549 27674 ft 433 kts 154°
2026-05-04 19:13 51.41828 -0.85641 27814 ft 439 kts 159°
2026-05-04 19:13 51.40906 -0.85058 27887 ft 440 kts 159°
2026-05-04 19:14 51.38267 -0.83386 28147 ft 443 kts 159°
2026-05-04 19:14 51.35428 -0.81584 28451 ft 445 kts 159°
2026-05-04 19:14 51.32504 -0.79720 28765 ft 447 kts 159°
2026-05-04 19:14 51.29611 -0.77869 29102 ft 449 kts 159°
2026-05-04 19:15 51.26702 -0.76009 29419 ft 451 kts 159°
2026-05-04 19:15 51.23784 -0.74146 29799 ft 450 kts 159°
2026-05-04 19:15 51.20879 -0.72298 30225 ft 449 kts 159°
2026-05-04 19:15 51.17983 -0.70459 30638 ft 448 kts 159°
2026-05-04 19:16 51.15089 -0.68624 31035 ft 447 kts 159°
2026-05-04 19:16 51.12203 -0.66795 31421 ft 446 kts 159°
2026-05-04 19:16 51.09319 -0.64973 31802 ft 446 kts 159°
2026-05-04 19:16 51.06449 -0.63110 32167 ft 446 kts 155°
2026-05-04 19:17 51.04096 -0.61097 32482 ft 446 kts 148°
2026-05-04 19:17 51.01518 -0.58364 32826 ft 446 kts 147°
2026-05-04 19:17 50.98946 -0.55611 33182 ft 445 kts 147°
2026-05-04 19:17 50.96375 -0.52868 33530 ft 445 kts 147°
2026-05-04 19:18 50.93806 -0.50130 33878 ft 445 kts 147°
2026-05-04 19:18 50.92835 -0.49097 34008 ft 444 kts 147°
2026-05-04 19:18 50.91505 -0.47686 34069 ft 447 kts 147°
2026-05-04 19:18 50.88959 -0.44985 34430 ft 445 kts 147°
2026-05-04 19:19 50.86393 -0.42265 34771 ft 444 kts 147°
2026-05-04 19:19 50.83787 -0.39503 34964 ft 445 kts 147°
2026-05-04 19:19 50.81228 -0.36793 34998 ft 442 kts 147°
2026-05-04 19:20 50.76131 -0.31407 34998 ft 440 kts 147°
2026-05-04 19:20 50.71031 -0.26054 34996 ft 440 kts 147°
2026-05-04 19:21 50.65937 -0.20696 34991 ft 440 kts 147°
2026-05-04 19:21 50.60844 -0.15350 34996 ft 440 kts 147°
2026-05-04 19:22 50.55781 -0.10068 35008 ft 440 kts 147°
2026-05-04 19:22 50.50668 -0.04753 34999 ft 440 kts 147°
2026-05-04 19:23 50.45557 0.00556 35009 ft 440 kts 147°
2026-05-04 19:23 50.40456 0.05854 35013 ft 439 kts 148°
2026-05-04 19:24 50.35326 0.11167 35020 ft 438 kts 148°
2026-05-04 19:24 50.30276 0.16376 35018 ft 437 kts 148°
2026-05-04 19:25 50.25199 0.21595 35019 ft 437 kts 148°
2026-05-04 19:25 50.20120 0.26794 35017 ft 437 kts 148°
2026-05-04 19:26 50.15040 0.32004 35017 ft 436 kts 148°
2026-05-04 19:26 50.09975 0.37222 35014 ft 437 kts 148°
2026-05-04 19:27 50.04899 0.42419 35013 ft 437 kts 148°
2026-05-04 19:27 49.99826 0.47630 35006 ft 437 kts 145°
2026-05-04 19:28 49.95119 0.53601 35009 ft 437 kts 141°
2026-05-04 19:28 49.90478 0.59703 34999 ft 437 kts 141°
2026-05-04 19:29 49.85841 0.65806 35002 ft 437 kts 141°
2026-05-04 19:29 49.81162 0.71903 34994 ft 437 kts 141°
2026-05-04 19:30 49.76529 0.77900 34984 ft 437 kts 142°
2026-05-04 19:30 49.71871 0.83915 34985 ft 437 kts 142°
2026-05-04 19:31 49.67207 0.89930 34985 ft 437 kts 141°
2026-05-04 19:31 49.62544 0.95940 34981 ft 436 kts 142°
2026-05-04 19:32 49.57885 1.01921 34979 ft 436 kts 142°
2026-05-04 19:32 49.53213 1.07896 34978 ft 436 kts 142°
2026-05-04 19:33 49.48544 1.13856 34978 ft 436 kts 142°
2026-05-04 19:33 49.43884 1.19777 34975 ft 436 kts 142°
2026-05-04 19:34 49.39215 1.25713 34971 ft 436 kts 142°
2026-05-04 19:34 49.34542 1.31657 34969 ft 436 kts 142°
2026-05-04 19:35 49.29866 1.37575 34966 ft 436 kts 142°
2026-05-04 19:35 49.25183 1.43476 34968 ft 436 kts 142°
2026-05-04 19:36 49.20496 1.49359 34965 ft 436 kts 142°
2026-05-04 19:36 49.15808 1.55233 34964 ft 436 kts 142°
2026-05-04 19:37 49.11122 1.61100 34965 ft 436 kts 142°
2026-05-04 19:37 49.07221 1.65987 34963 ft 436 kts 142°
2026-05-04 19:38 49.02528 1.71839 34959 ft 436 kts 142°
2026-05-04 19:38 48.97823 1.77671 34958 ft 436 kts 142°
2026-05-04 19:39 48.93124 1.83494 34951 ft 436 kts 142°
2026-05-04 19:39 48.88413 1.89319 34951 ft 436 kts 143°
2026-05-04 19:40 48.83725 1.95107 34950 ft 436 kts 143°
2026-05-04 19:40 48.79018 2.00908 34947 ft 436 kts 143°
2026-05-04 19:41 48.74303 2.06689 34951 ft 436 kts 143°
2026-05-04 19:41 48.69586 2.12461 34944 ft 436 kts 143°
2026-05-04 19:42 48.64867 2.18219 34948 ft 436 kts 143°
2026-05-04 19:42 48.60148 2.23970 34951 ft 436 kts 143°
2026-05-04 19:43 48.55445 2.29694 34953 ft 436 kts 143°
2026-05-04 19:43 48.50718 2.35408 34953 ft 436 kts 143°
2026-05-04 19:44 48.45983 2.41121 34953 ft 436 kts 143°
2026-05-04 19:44 48.41249 2.46833 34949 ft 436 kts 143°
2026-05-04 19:45 48.36516 2.52530 34944 ft 436 kts 143°
2026-05-04 19:45 48.31778 2.58209 34949 ft 436 kts 143°
2026-05-04 19:46 48.26851 2.63445 34944 ft 432 kts 155°
2026-05-04 19:46 48.21429 2.67135 34937 ft 431 kts 158°
2026-05-04 19:47 48.15871 2.70682 34939 ft 431 kts 159°
2026-05-04 19:47 48.10388 2.74157 34935 ft 431 kts 159°
2026-05-04 19:48 48.04869 2.77693 34935 ft 431 kts 158°
2026-05-04 19:48 47.99356 2.81249 34940 ft 431 kts 158°
2026-05-04 19:49 47.93848 2.84784 34943 ft 431 kts 159°
2026-05-04 19:49 47.88338 2.88300 34939 ft 431 kts 159°
2026-05-04 19:50 47.82829 2.91804 34934 ft 430 kts 159°
2026-05-04 19:50 47.77323 2.95300 34929 ft 430 kts 159°
2026-05-04 19:51 47.71826 2.98786 34930 ft 430 kts 159°
2026-05-04 19:51 47.66321 3.02270 34933 ft 430 kts 159°
2026-05-04 19:52 47.60818 3.05740 34928 ft 430 kts 159°
2026-05-04 19:52 47.55313 3.09214 34932 ft 430 kts 159°
2026-05-04 19:53 47.49811 3.12671 34928 ft 430 kts 159°
2026-05-04 19:53 47.44306 3.16115 34929 ft 430 kts 159°
2026-05-04 19:54 47.38807 3.19565 34929 ft 430 kts 159°
2026-05-04 19:54 47.33302 3.22999 34926 ft 429 kts 159°
2026-05-04 19:55 47.27802 3.26418 34917 ft 429 kts 159°
2026-05-04 19:55 47.22297 3.29834 34917 ft 429 kts 159°
2026-05-04 19:56 47.16794 3.33245 34917 ft 429 kts 159°
2026-05-04 19:56 47.11285 3.36655 34916 ft 429 kts 160°
2026-05-04 19:57 47.05775 3.40051 34916 ft 429 kts 160°
2026-05-04 19:57 47.00267 3.43433 34915 ft 430 kts 160°
2026-05-04 19:58 46.94751 3.46819 34914 ft 430 kts 160°
2026-05-04 19:58 46.89241 3.50207 34914 ft 430 kts 160°
2026-05-04 19:59 46.83721 3.53589 34915 ft 430 kts 160°
2026-05-04 19:59 46.80957 3.55277 34516 ft 432 kts 160°
2026-05-04 19:59 46.78180 3.56971 34064 ft 431 kts 160°
2026-05-04 19:59 46.75415 3.58652 33614 ft 430 kts 160°
2026-05-04 20:00 46.72654 3.60329 33172 ft 431 kts 160°
2026-05-04 20:00 46.69885 3.62005 32703 ft 431 kts 160°
2026-05-04 20:00 46.67107 3.63685 32268 ft 432 kts 160°
2026-05-04 20:00 46.64331 3.65367 31818 ft 433 kts 160°
2026-05-04 20:01 46.61548 3.67057 31369 ft 434 kts 160°
2026-05-04 20:01 46.58755 3.68752 30709 ft 436 kts 160°
2026-05-04 20:01 46.55911 3.70471 29355 ft 450 kts 160°
2026-05-04 20:01 46.52988 3.72230 28168 ft 458 kts 160°
2026-05-04 20:02 46.50048 3.74001 27284 ft 458 kts 160°
2026-05-04 20:02 46.47117 3.75767 26506 ft 455 kts 159°
2026-05-04 20:02 46.44201 3.77527 25782 ft 452 kts 159°
2026-05-04 20:02 46.41311 3.79276 25067 ft 448 kts 158°
2026-05-04 20:03 46.38607 3.81437 24335 ft 447 kts 147°
2026-05-04 20:03 46.36251 3.84363 23613 ft 447 kts 135°
2026-05-04 20:03 46.34372 3.87919 22894 ft 446 kts 123°
2026-05-04 20:03 46.32914 3.91869 22188 ft 443 kts 119°
2026-05-04 20:04 46.31502 3.95822 21483 ft 439 kts 119°
2026-05-04 20:04 46.30101 3.99724 20802 ft 435 kts 120°
2026-05-04 20:04 46.28711 4.03574 20188 ft 429 kts 120°
2026-05-04 20:04 46.27351 4.07331 19957 ft 414 kts 120°
2026-05-04 20:05 46.26030 4.10971 19409 ft 408 kts 120°
2026-05-04 20:05 46.24697 4.14627 18612 ft 410 kts 120°
2026-05-04 20:05 46.23392 4.18206 18322 ft 397 kts 120°
2026-05-04 20:05 46.22117 4.21714 17823 ft 393 kts 120°
2026-05-04 20:06 46.20871 4.25149 17307 ft 389 kts 118°
2026-05-04 20:06 46.19881 4.28813 16742 ft 386 kts 111°
2026-05-04 20:06 46.19004 4.32413 16195 ft 384 kts 111°
2026-05-04 20:06 46.18122 4.36036 15963 ft 383 kts 111°
2026-05-04 20:07 46.17240 4.39649 15961 ft 382 kts 111°
2026-05-04 20:07 46.16354 4.43278 15962 ft 384 kts 111°
2026-05-04 20:07 46.15469 4.46917 15963 ft 383 kts 111°
2026-05-04 20:07 46.14581 4.50539 15962 ft 383 kts 111°
2026-05-04 20:08 46.13686 4.54166 15955 ft 384 kts 111°
2026-05-04 20:08 46.12790 4.57791 15958 ft 383 kts 111°
2026-05-04 20:08 46.11899 4.61419 15966 ft 385 kts 111°
2026-05-04 20:08 46.11004 4.65055 15950 ft 384 kts 111°
2026-05-04 20:09 46.10103 4.68675 15702 ft 382 kts 111°
2026-05-04 20:09 46.09204 4.72275 15378 ft 381 kts 111°
2026-05-04 20:09 46.08314 4.75854 15056 ft 378 kts 111°
2026-05-04 20:09 46.07432 4.79417 14726 ft 377 kts 111°
2026-05-04 20:10 46.06555 4.82965 14394 ft 375 kts 111°
2026-05-04 20:10 46.05677 4.86491 14066 ft 374 kts 111°
2026-05-04 20:10 46.04800 4.90005 13743 ft 372 kts 111°
2026-05-04 20:10 46.03927 4.93488 13416 ft 370 kts 111°
2026-05-04 20:11 46.03056 4.96963 13090 ft 367 kts 111°
2026-05-04 20:11 46.02192 5.00408 12769 ft 365 kts 111°
2026-05-04 20:11 46.01332 5.03833 12447 ft 363 kts 111°
2026-05-04 20:11 46.00477 5.07237 12124 ft 362 kts 111°
2026-05-04 20:12 45.99618 5.10625 11796 ft 360 kts 110°
2026-05-04 20:12 45.98757 5.14016 11469 ft 360 kts 111°
2026-05-04 20:12 45.97905 5.17372 11149 ft 356 kts 111°
2026-05-04 20:12 45.97065 5.20692 10822 ft 354 kts 111°
2026-05-04 20:13 45.96228 5.23999 10500 ft 352 kts 111°
2026-05-04 20:13 45.95398 5.27276 10176 ft 350 kts 110°
2026-05-04 20:13 45.94572 5.30541 9851 ft 345 kts 110°
2026-05-04 20:13 45.93761 5.33740 9523 ft 336 kts 110°
2026-05-04 20:14 45.92970 5.36849 9200 ft 329 kts 110°
2026-05-04 20:14 45.92189 5.39902 8893 ft 321 kts 111°
2026-05-04 20:14 45.91439 5.42832 8859 ft 305 kts 110°
2026-05-04 20:14 45.90727 5.45615 8834 ft 289 kts 110°
2026-05-04 20:15 45.90050 5.48252 8803 ft 275 kts 111°
2026-05-04 20:15 45.89403 5.50764 8777 ft 261 kts 111°
2026-05-04 20:15 45.88788 5.53138 8749 ft 247 kts 111°
2026-05-04 20:15 45.88200 5.55411 8720 ft 240 kts 111°
2026-05-04 20:16 45.87726 5.57708 8665 ft 241 kts 100°
2026-05-04 20:16 45.87498 5.60088 8431 ft 239 kts 98°
2026-05-04 20:16 45.87274 5.62452 8117 ft 240 kts 98°
2026-05-04 20:16 45.87040 5.64822 7779 ft 241 kts 98°
2026-05-04 20:17 45.86812 5.67178 7459 ft 242 kts 98°
2026-05-04 20:17 45.86579 5.69603 7128 ft 242 kts 98°
2026-05-04 20:17 45.86344 5.71966 6807 ft 243 kts 98°
2026-05-04 20:17 45.86103 5.74357 6475 ft 243 kts 98°
2026-05-04 20:18 45.85858 5.76798 6152 ft 244 kts 98°
2026-05-04 20:18 45.85754 5.79180 5831 ft 244 kts 86°
2026-05-04 20:18 45.85865 5.81637 5548 ft 242 kts 86°
2026-05-04 20:18 45.85919 5.83994 5291 ft 238 kts 97°
2026-05-04 20:19 45.85340 5.86140 5090 ft 228 kts 129°
2026-05-04 20:19 45.84119 5.87425 4992 ft 214 kts 161°
2026-05-04 20:19 45.82673 5.87549 5014 ft 208 kts 188°
2026-05-04 20:19 45.81249 5.87169 4901 ft 207 kts 189°
2026-05-04 20:20 45.79830 5.86911 4711 ft 206 kts 184°
2026-05-04 20:20 45.78434 5.86867 4566 ft 192 kts 179°
2026-05-04 20:20 45.77131 5.86940 4351 ft 184 kts 177°
2026-05-04 20:20 45.75868 5.87036 4040 ft 179 kts 176°
2026-05-04 20:21 45.74643 5.87135 3714 ft 175 kts 176°
2026-05-04 20:21 45.73444 5.87233 3374 ft 169 kts 176°
2026-05-04 20:21 45.71213 5.87415 2735 ft 152 kts 177°
2026-05-04 20:22 45.70184 5.87499 2436 ft 146 kts 176°
2026-05-04 20:22 45.69503 5.87555 2250 ft 145 kts 176°
2026-05-04 20:22 45.68502 5.87639 1957 ft 144 kts 176°
2026-05-04 20:22 45.67502 5.87694 1654 ft 143 kts 179°
2026-05-04 20:23 45.66516 5.87780 1386 ft 142 kts 175°
2026-05-04 20:23 45.65530 5.87873 1084 ft 142 kts 177°
2026-05-04 20:23 45.64561 5.87961 800 ft 140 kts 177°
2026-05-04 20:23 45.63692 5.88033 778 ft 89 kts 176°
2026-05-04 20:24 45.63320 5.88063 782 ft 33 kts 176°
2026-05-04 20:24 45.63193 5.88073 785 ft 11 kts 176°
2026-05-04 20:24 45.63149 5.88145 785 ft 12 kts 90°
2026-05-04 20:24 45.63181 5.88260 783 ft 14 kts 36°
2026-05-04 20:25 45.63256 5.88272 783 ft 9 kts 358°
2026-05-04 20:25 45.63319 5.88268 782 ft 9 kts 357°
2026-05-04 20:25 45.63383 5.88262 782 ft 9 kts 355°
2026-05-04 20:25 45.63449 5.88255 781 ft 10 kts 356°
2026-05-04 20:26 45.63516 5.88249 781 ft 10 kts 356°
2026-05-04 20:26 45.63589 5.88243 780 ft 12 kts 356°
2026-05-04 20:26 45.63692 5.88235 779 ft 16 kts 357°
2026-05-04 20:26 45.63783 5.88230 779 ft 10 kts
2026-05-04 20:27 45.63853 5.88244 778 ft 9 kts
2026-05-04 20:27 45.63884 5.88253 778 ft 3 kts 31°
2026-05-04 20:27 45.63896 5.88277 778 ft 4 kts 66°
2026-05-04 20:27 45.63899 5.88316 778 ft 3 kts 90°
2026-05-04 20:28 45.63899 5.88334 778 ft 0 kts 90°